Regional Weather Roundup
Issued by NWS

Home | Current Version | Previous Version | Graphics & Text | Print | Product List | Glossary On
Versions: 1 2 3 4 5 6 7 8 9 10 11 12 13 14 15 16 17 18 19 20 21 22 23 24 25 26 27 28 29 30 31 32 33 34 35 36 37 38 39 40 41 42 43 44 45 46 47 48 49 50
000
ASUS45 KBOU 290007
RWRCO

WEATHER ROUNDUP FOR COLORADO
NATIONAL WEATHER SERVICE DENVER/BOULDER CO
600 PM MDT WED JUN 28 2017

NOTE: "FAIR" INDICATES FEW OR NO CLOUDS BELOW 12000 FEET WITH NO
SIGNIFICANT WEATHER AND/OR OBSTRUCTIONS TO VISIBILITY.

COZ001>005-013-030-031-290100-
...NORTHWEST COLORADO...

CITY           SKY/WX    TMP DP  RH WIND       PRES   REMARKS
CRAIG          FAIR      84  23  10 SW18G28   29.88F
HAYDEN         FAIR      81  25  12 SW18G26   29.92S
MEEKER         FAIR      83  16   8 SW10      29.89F
RABBIT EARS PA CLOUDY    55  28  35 W6G24     30.26S
STEAMBOAT SPGS FAIR      74  32  21 S12       29.96S
WALDEN         FAIR      75  23  14 SW20G28   30.06F
$$

COZ006>008-011-290100-
...WEST CENTRAL VALLEYS...

CITY           SKY/WX    TMP DP  RH WIND       PRES   REMARKS
GRAND JUNCTION FAIR      95  16   5 W14G20    29.76F
MONTROSE       FAIR      88  12   6 SW17G25   29.87F
EAGLE          MOSUNNY   86  23  10 W17       29.93F
RIFLE          FAIR      92   7   4 W24G33    29.81F
DELTA          FAIR      96  11   4 SW15G24   29.80F
NUCLA          FAIR      90   1   3 W13G33    29.93F
$$

COZ017>023-064>068-290100-
...SOUTHWEST COLORADO...

CITY           SKY/WX    TMP DP  RH WIND       PRES   REMARKS
DURANGO        FAIR      86   3   4 NW18G28   30.00F
CORTEZ         FAIR      90   1   3 SW16G25   29.94F
PAGOSA SPRINGS FAIR      82   3   5 W18G28    30.09F
TELLURIDE      FAIR      74  11   8 SW9G23    30.21F
WOLF CREEK PAS FAIR      59  18  20 SW18G30   30.46F
$$

COZ009-010-012-014-032>034-037-058>063-290100-
...CENTRAL COLORADO...

CITY           SKY/WX    TMP DP  RH WIND       PRES   REMARKS
ASPEN          FAIR      77  21  12 SW9G18    30.02F
BUENA VISTA    FAIR      81  16   8 W16G25    30.04F
COPPER MTN     PTSUNNY   61  18  18 W20       30.38F
BERTHOUD PASS  LGT RAIN  46  32  57 NW15G23   30.41S
COTTONWOOD PAS FAIR      72   3   7 SW15G26   30.20F
GUNNISON       FAIR      78  23  13 SW14G29   30.05F
KREMMLING      FAIR      82  19   9 NW9       30.01F
LEADVILLE      FAIR      68  15  13 W14       30.19F
MONARCH PASS   FAIR      61  16  17 W36G45    30.48F
SALIDA         FAIR      86  17   8 W20G25    30.07F
SUNLIGHT       FAIR      68  19  15 SW12G24   30.29F
WILKERSON PASS FAIR      61  10  13 SW9       30.33F
$$

COZ069>075-290100-
...SAN LUIS VALLEY/SANGRE DE CRISTO MOUNTAINS...

CITY           SKY/WX    TMP DP  RH WIND       PRES   REMARKS
ALAMOSA        FAIR      82  22  11 SW18G28   30.02F
DEL NORTE      FAIR      80  23  12 SW21G33   30.05S
LA VETA PASS   FAIR      70  19  14 S25G40    30.35F
SAGUACHE       FAIR      81  21  11 N16G26    30.03S
$$

COZ035-036-038>040-290100-
...NORTHERN COLORADO FRONT RANGE...

CITY           SKY/WX    TMP DP  RH WIND       PRES   REMARKS
DENVER INTL AP PTSUNNY   89  33  13 N5        29.83F
DMNS CITY PARK   N/A     86  35  16 N6        29.83S
AURORA         PTSUNNY   84  35  17 NE3       29.85F
FRONT RANGE AP FAIR      86  36  16 SE13      29.84F
ERIE MUNI ARPT FAIR      86  32  14 N8        29.82F
BOULDER MUN AP FAIR      82  36  18 NW5       29.84R
CENTENNIAL     PTSUNNY   84  35  17 VRB3      29.86F
BROOMFIELD     FAIR      86  37  17 N13       29.87S
FORT COLLINS   FAIR      85  33  15 SE9       29.81F
LONGMONT       LGT RAIN  85  34  16 N9        29.83S
$$

COZ041-046-047-076>085-087-088-290100-
...PIKES PEAK/PALMER DIVIDE AND SOUTHERN FOOTHILLS...

CITY           SKY/WX    TMP DP  RH WIND       PRES   REMARKS
COLO. SPRINGS  FAIR      85  33  15 S17G24    29.89S
A. F. ACADEMY  FAIR      82  35  18 S18G25    29.88F
SCHRIEVER AFB  FAIR      85  32  15 S15G25    29.89F
CHEYENNE MTN   FAIR      79  33  18 SE21G28   29.88F
ELLICOTT       FAIR     N/A N/A N/A S18G25    29.87F
FALCON           N/A     83  29  14 S22G28    29.95F
FORT CARSON    FAIR      87  38  17 S18G26    29.84F
LIMON          FAIR      87  37  17 SE17      29.84F
MONUMENT HILL  FAIR      77  32  19 S15       29.97F
CANON CITY     SUNNY     93  39  15 E16       29.81S
WALSENBURG     FAIR      91  23   8 SW18G28   29.87F
TRINIDAD       FAIR      89  37  16 E14       29.84F
$$

COZ042>045-048>051-090-091-290100-
...NORTHEAST COLORADO...

CITY           SKY/WX    TMP DP  RH WIND       PRES   REMARKS
GREELEY ARPT   FAIR      83  48  29 E7        29.81F
AKRON          PTSUNNY   81  41  24 S20       29.83F
BURLINGTON     FAIR      88  49  25 E10       29.81F
WRAY           FAIR      84  46  26 SE8       29.79S
YUMA           FAIR      79  50  36 SE14      29.78F
STERLING       FAIR      88  45  22 SW6       29.76S
HOLYOKE        NOT AVBL
FORT MORGAN    FAIR      85  41  21 SE13G18   29.81S
$$

COZ086-089-092>099-290100-
...SOUTHEAST COLORADO...

CITY           SKY/WX    TMP DP  RH WIND       PRES   REMARKS
PUEBLO         FAIR      94  39  14 SE16      29.74F
LA JUNTA       FAIR      94  41  16 SE17G24   29.74F
LAMAR          FAIR      94  47  20 SE14G23   29.71F
SPRINGFIELD      N/A     90  51  26 S9        29.79F
$$



USA.gov is the U.S. government's official web portal to all federal, state and local government web resources and services.